"Pseudo-MPEC" for P20OOJf

Created 2019 Jun 19 17:07:41 UT using Find_Orb

Click here for an explanation of pseudo-MPECs

 
 Astrometry: 
     P20OOJf  C2019 06 07kyt4j*G;gFv/=Uy/R(iXC5Yb'%=8T.kNv52x+x'/o[enj]GMYJ82F52
     P20OOJf  C2019 06 07Cr)5Ll[UBpgt!As\Qh=Astrometryp7b-854q_PdLM\/=b!x=DH_F52
     P20OOJf  C2019 06 07$k`WZX'K@5c/#4H-xNZ4^Qw_Onredacted;]xSVVZ!k5Ns`nb#WeF52
     P20OOJf |C2019 06 088rjT,%8^R3Jie$yA^!8OclickjfQ5dTl)FL!7'.slr%YBIEF@^#X807
     P20OOJf |C2019 06 08hHyDy4/-Z8T-nEh;aH3A'/jL0lGHJ%jrX5hereKlx2'j@4^e:=bm807
     P20OOJf  C2019 06 09.29743 17 48 43.94 +10 42 53.8    ~697b 21.8 GVNEOCPI52
     P20OOJf  C2019 06 09.29934 17 48 43.92 +10 43 03.8    ~697b 21.8 GVNEOCPI52
     P20OOJf  C2019 06 09.30202 17 48 43.89 +10 43 18.4    ~697b 21.5 GVNEOCPI52
     P20OOJf pC2019 06 108jW\pA)=iSwZ%/o*m)7]qvM6]jS*]Ca?m(HeLU,4KU'5d9L[iNbZL01
     P20OOJf IC2019 06 101S3j0W/#:XBfg^Ld[@k7/VP[kt0TTuaAkQQI:.=LQ]:i/SD6E[FUL01
     P20OOJf  C2019 06 10e[F_ETmA;4for2Fe5aN,3%i'nxwv4GW4VCIV\o1P6'^lB2x/kh79F51
     P20OOJf  C2019 06 10@4;=tjrq:OT/:^Et!!`mCrFS=4jW.XrK5i%aq?j%N^cMY@OZv$SBF51
     P20OOJf  C2019 06 101p0U'?3TjHCD(^pG)uPg9#FY,'9]_F%pq6KxU8,y;OxChnDqCt^6F51
     P20OOJf KC2019 06 11R+I82cuqc!AZkF3^?SSoQv]EATColYGw)`cF[4c6UD[!W[:v5mEfH21
     P20OOJf KC2019 06 11j\fejcZ]B\Z%BD%WXiHhg)iD?]t.QexplanationtNuV::G#t*0YH21
     P20OOJf KC2019 06 11,_O(f=oI`mBDgPOa%Jrsd?w8#QIu0U8IsgQ9^=Dm_B[6qvounh_gH21
     P20OOJf  C2019 06 14.25465 17 49 41.59 +18 26 49.0    ~6E6b       VNEOCPI52
     P20OOJf  C2019 06 14.25673 17 49 41.62 +18 27 01.2    ~6E6b 20.3 GVNEOCPI52
     P20OOJf  C2019 06 14.25882 17 49 41.63 +18 27 12.7    ~6E6b       VNEOCPI52
     P20OOJf  C2019 06 15.23842 17 49 52.25 +20 00 10.0    ~6F6b 23.0 GVNEOCPI52
     P20OOJf  C2019 06 15.24092 17 49 52.26 +20 00 24.8    ~6F6b       VNEOCPI52
     P20OOJf  C2019 06 15.24342 17 49 52.21 +20 00 39.4    ~6F6b 21.5 GVNEOCPI52
     P20OOJf  C2019 06 15.24592 17 49 52.19 +20 00 54.1    ~6F6b 21.5 GVNEOCPI52

Station data:
(807) Cerro Tololo Observatory, La Serena  (S30.169136 W70.805900)  Chile.
(F51) Pan-STARRS 1, Haleakala  (N20.707235 W156.255910)  US/Hawaii.
   Observers N. Primak, A. Schultz, S. Watters, J. Thiel, T. Goggia. Measurer
   PS1 Science Consortium. 1.8-m Ritchey-Chrétien + CCD.
(F52) Pan-STARRS 2, Haleakala  (N20.707384 W156.255910)  US/Hawaii. 1.8-m
   Ritchey-Chrétien + CCD.
(H21) Astronomical Research Observatory, Westfield  (N39.483057 W87.968270)
   US/Illinois. 0.76-m f/3.0 astrograph + CCD.
(I52) Steward Observatory, Mt. Lemmon Station  (N32.442547 W110.788920)
   US/Arizona.  Observers T. A. Pruyne, B. M. Africano, E. J. Christensen, G.
   A. Farneth, D. C. Fuls, A. R. Gibbs, A. D. Grauer, H. Groeller, J. A.
   Johnson, R. A. Kowalski, S. M. Larson, G. J. Leonard, R. L. Seaman, F. C.
   Shelly. 1.0-m reflector + CCD.
(L01) Višnjan Observatory, Tičan  (N45.290900 E13.749300)  Croatia.
   Observers K. Korlević, E. Pettarin. Measurer E. Pettarin. 1.0-m f/2.9
   reflector + CCD.

Orbital elements:  P20OOJf
   Perihelion 2019 Aug 17.904888 +/- 0.0888 TT = 21:43:02 (JD 2458713.404888)
Epoch 2019 Jun 15.0 TT = JDT 2458649.5   Earth MOID: 0.1536   AutoNEOCP
M 319.68425173 +/- 0.23             (J2000 ecliptic)
n   0.63087112 +/- 0.00274          Peri.   93.31104 +/- 0.12
a   1.34640469 +/- 0.00391          Node   234.31307 +/- 0.046
e   0.2462216 +/- 0.00196           Incl.   11.23133 +/- 0.08
P   1.56/570.63d           H 23.6   G  0.15   U  8.8  
q 1.01489069 +/- 0.0003    Q 1.67791868 +/- 0.00755
From 23 observations 2019 June 7-15; mean residual 0".45
Residuals in arcseconds: 
190607 F52  .09-  .07-    190610 L01  .59-  1.8+    190614 I52  .49-  .68-    
190607 F52  .14+  .22-    190610 L01  .90-  .23+    190614 I52  .17+  .40-    
190607 F52  .09+  .04+    190610 F51  .19+  .33-    190614 I52  .55+  .86-    
190608 807  .04-  .36+    190610 F51  .19+  .32-    190615 I52  .10-  .19-    
190608 807  .02-  .28-    190610 F51  .22+  .07-    190615 I52  .30+  .25+    
190609 I52  .46+  .06+    190611 H21  .10+  .02-    190615 I52  .14-  .49+    
190609 I52  .31+  .47-    190611 H21  .01+  .02+    190615 I52  .14-  .84+    
190609 I52  .08+  .64-    190611 H21  .00   .06-    

Ephemerides (geocentric):
Date (UTC) HH   RA              Dec         delta   r     elong  mag " sig PA
---- -- -- --  -------------   -----------  ------ ------ -----  --- ---- ---
2019 06 19 17  17 50 37.584   +27 02 10.64  .15853 1.1237 129.5 21.5 .363 132
2019 06 19 18  17 50 38.035   +27 06 03.68  .15852 1.1236 129.5 21.5 .367 133
2019 06 19 19  17 50 38.488   +27 09 56.64  .15850 1.1234 129.4 21.5 .370 133
2019 06 19 20  17 50 38.940   +27 13 49.52  .15848 1.1233 129.3 21.5 .374 133
2019 06 19 21  17 50 39.393   +27 17 42.32  .15847 1.1232 129.3 21.5 .377 133
2019 06 19 22  17 50 39.847   +27 21 35.05  .15845 1.1230 129.2 21.5 .381 134
2019 06 19 23  17 50 40.301   +27 25 27.69  .15844 1.1229 129.2 21.5 .385 134
2019 06 20 00  17 50 40.756   +27 29 20.24  .15842 1.1228 129.1 21.5 .389 134
2019 06 20 01  17 50 41.211   +27 33 12.72  .15841 1.1226 129.0 21.5 .393 134
2019 06 20 02  17 50 41.667   +27 37 05.11  .15839 1.1225 129.0 21.5 .397 135
2019 06 20 03  17 50 42.124   +27 40 57.41  .15838 1.1224 128.9 21.5 .401 135
2019 06 20 04  17 50 42.581   +27 44 49.63  .15836 1.1222 128.8 21.5 .405 135
2019 06 20 05  17 50 43.038   +27 48 41.77  .15835 1.1221 128.8 21.5 .409 135
2019 06 20 06  17 50 43.497   +27 52 33.82  .15833 1.1220 128.7 21.5 .413 136
2019 06 20 07  17 50 43.955   +27 56 25.78  .15832 1.1218 128.6 21.5 .417 136
2019 06 20 08  17 50 44.415   +28 00 17.65  .15831 1.1217 128.6 21.5 .421 136
2019 06 20 09  17 50 44.875   +28 04 09.44  .15829 1.1215 128.5 21.5 .426 136
2019 06 20 10  17 50 45.335   +28 08 01.13  .15828 1.1214 128.4 21.5 .430 137
2019 06 20 11  17 50 45.796   +28 11 52.74  .15827 1.1213 128.4 21.5 .435 137
2019 06 20 12  17 50 46.258   +28 15 44.26  .15825 1.1211 128.3 21.5 .439 137
2019 06 20 13  17 50 46.721   +28 19 35.68  .15824 1.1210 128.2 21.5 .444 137
2019 06 20 14  17 50 47.184   +28 23 27.01  .15823 1.1209 128.2 21.5 .448 138
2019 06 20 15  17 50 47.648   +28 27 18.25  .15822 1.1207 128.1 21.5 .453 138
2019 06 20 16  17 50 48.112   +28 31 09.40  .15821 1.1206 128.0 21.5 .458 138
2019 06 20 17  17 50 48.577   +28 35 00.46  .15819 1.1205 128.0 21.5 .463 138
2019 06 20 18  17 50 49.043   +28 38 51.42  .15818 1.1203 127.9 21.5 .468 139
2019 06 20 19  17 50 49.509   +28 42 42.28  .15817 1.1202 127.8 21.5 .472 139
2019 06 20 20  17 50 49.977   +28 46 33.05  .15816 1.1201 127.8 21.5 .477 139
2019 06 20 21  17 50 50.444   +28 50 23.72  .15815 1.1199 127.7 21.5 .483 139
2019 06 20 22  17 50 50.913   +28 54 14.30  .15814 1.1198 127.6 21.5 .488 140
2019 06 20 23  17 50 51.382   +28 58 04.78  .15813 1.1197 127.6 21.5 .493 140
2019 06 21 00  17 50 51.852   +29 01 55.16  .15812 1.1195 127.5 21.5 .498 140
2019 06 21 01  17 50 52.323   +29 05 45.44  .15811 1.1194 127.5 21.6 .504 140
2019 06 21 02  17 50 52.794   +29 09 35.63  .15810 1.1193 127.4 21.6 .509 141
2019 06 21 03  17 50 53.266   +29 13 25.71  .15809 1.1191 127.3 21.6 .514 141
2019 06 21 04  17 50 53.739   +29 17 15.69  .15808 1.1190 127.3 21.6 .520 141
2019 06 21 05  17 50 54.213   +29 21 05.57  .15807 1.1189 127.2 21.6 .526 141
2019 06 21 06  17 50 54.687   +29 24 55.35  .15806 1.1187 127.1 21.6 .531 142
2019 06 21 07  17 50 55.163   +29 28 45.03  .15806 1.1186 127.1 21.6 .537 142
2019 06 21 08  17 50 55.638   +29 32 34.60  .15805 1.1185 127.0 21.6 .543 142
2019 06 21 09  17 50 56.115   +29 36 24.07  .15804 1.1183 126.9 21.6 .549 142
2019 06 21 10  17 50 56.593   +29 40 13.44  .15803 1.1182 126.9 21.6 .555 143
2019 06 21 11  17 50 57.071   +29 44 02.70  .15802 1.1181 126.8 21.6 .561 143
2019 06 21 12  17 50 57.550   +29 47 51.86  .15802 1.1179 126.7 21.6 .567 143
2019 06 21 13  17 50 58.030   +29 51 40.91  .15801 1.1178 126.7 21.6 .573 143
2019 06 21 14  17 50 58.511   +29 55 29.85  .15800 1.1177 126.6 21.6 .579 143
2019 06 21 15  17 50 58.993   +29 59 18.69  .15799 1.1175 126.5 21.6 .586 144
2019 06 21 16  17 50 59.475   +30 03 07.41  .15799 1.1174 126.5 21.6 .592 144